Location: Hamilton
(37.7830°S, 175.2830°E)
Time: 05:44:03
(UTC+13:00)

ISS - Visible Passes

Search period start: 14 January 2025 00:00
Search period end: 24 January 2025 00:00
Orbit: 415 x 418 km, 51.6° (Epoch: 13 January)

Date Brightness Start Highest point End Pass type
(mag) Time Alt. Az. Time Alt. Az. Time Alt. Az.
18 Jan -1.7 05:09:10 10° N 05:11:49 21° NE 05:14:29 10° E visible
19 Jan -1.1 04:22:48 11° NE 04:23:32 12° NE 04:24:52 10° ENE visible
20 Jan -3.6 05:09:16 21° NW 05:11:23 68° NE 05:14:47 10° SE visible
21 Jan -2.8 04:22:43 35° NE 04:22:55 35° NE 04:26:05 10° ESE visible
22 Jan -1.1 03:36:07 15° E 03:36:07 15° E 03:37:03 10° E visible
22 Jan -2.8 05:09:00 19° W 05:11:03 40° SW 05:14:18 10° SE visible
23 Jan -3.8 04:22:19 70° WSW 04:22:25 71° SW 04:25:50 10° SE visible
